Simultaneous Nadir Overpasses (SNOs) Predictions

Prediction of SNOs between LANDSAT-8 and NOAA-19 Satellite Orbit:

Table of predicted SNOs for the next 14.0 days since TLE Epoch: 12/28/2019
Index Date (LANDSAT-8) Time (LANDSAT-8) Lat,Lon (LANDSAT-8) SZA (LANDSAT-8 ) Date (NOAA-19) Time (NOAA-19) Lat,Lon (NOAA-19) SZA (NOAA-19 ) Distance(km) Time Diff (sec)
1 12/28/2019 12:53:58 79.34, 9.33 103.32 12/28/2019 12:53:18 79.38, 9.31 103.34 3.56 40
2 12/28/2019 13:43:25 -79.35, 177.01 76.68 12/28/2019 13:44:12 -79.35, 176.85 76.68 3.33 47
3 12/30/2019 18:27:41 -79.38, 106.16 76.78 12/30/2019 18:26:33 -79.36, 106.24 76.81 3.34 68
4 12/30/2019 19:17:08 79.34, -86.48 103.17 12/30/2019 19:17:39 79.36, -86.55 103.19 2.70 31
5 01/02/2020 00:50:51 -79.38, 10.35 76.97 01/02/2020 00:50:54 -79.35, 10.34 77.00 3.64 3
6 01/04/2020 06:24:33 79.36, 106.81 102.79 01/04/2020 06:24:20 79.36, 106.98 102.79 3.46 13
7 01/04/2020 07:14:01 -79.34, -85.73 77.26 01/04/2020 07:15:14 -79.34, -85.57 77.22 3.24 73
8 01/06/2020 11:58:17 -79.37,-156.61 77.47 01/06/2020 11:57:36 -79.38,-156.45 77.46 3.45 41
9 01/06/2020 12:47:43 79.36, 10.96 102.51 01/06/2020 12:48:41 79.35, 11.06 102.53 2.17 58
10 01/08/2020 17:31:59 79.38, -59.93 102.26 01/08/2020 17:31:03 79.39, -59.84 102.26 2.14 56
11 01/08/2020 18:21:27 -79.36, 107.55 77.79 01/08/2020 18:21:57 -79.37, 107.64 77.76 2.29 30




NCC Satellite Simultaneous Nadir Overpasses (SNOs) Prediction Service
